📊 Raw Sensor Data

Showing records 37051 to 37075 of 84,907 total

ID Distance (ft) Battery V Battery A Int Temp (°F) Int Humid (%) Ext Temp (°F) Solar V RSSI SNR Time Stamp
47869 15.6 3.93 0 84 43 85 5.10 -69 7 07/31/2025 11:45 AM
47868 15.6 3.93 0 82 42 79 5.10 -69 8 07/31/2025 11:30 AM
47867 15.7 3.93 0 81 43 78 5.10 -71 7 07/31/2025 11:15 AM
47866 15.6 3.92 0 79 43 82 5.10 -68 8 07/31/2025 11:00 AM
47865 15.6 3.92 5 78 42 77 5.10 -70 8 07/31/2025 10:45 AM
47864 15.5 4.09 0 77 42 80 5.10 -71 7 07/31/2025 10:30 AM
47863 15.5 3.94 5 76 43 78 5.10 -70 8 07/31/2025 10:15 AM
47862 15.3 3.92 0 74 43 75 5.10 -69 8 07/31/2025 10:00 AM
47861 15.6 3.92 5 73 43 77 5.10 -69 8 07/31/2025 09:45 AM
47860 15.9 3.92 0 73 43 73 5.10 -69 8 07/31/2025 09:30 AM
47859 15.6 3.92 0 71 43 71 5.10 -70 8 07/31/2025 09:15 AM
47858 15.6 4.06 5 70 43 76 5.10 -68 7 07/31/2025 09:00 AM
47857 15.6 3.92 5 69 44 73 5.10 -69 8 07/31/2025 08:45 AM
47856 15.5 3.92 5 67 44 71 5.10 -67 7 07/31/2025 08:30 AM
47855 15.5 3.92 0 66 44 68 5.10 -70 8 07/31/2025 08:15 AM
47854 15.5 3.92 5 65 43 69 5.10 -71 7 07/31/2025 08:00 AM
47853 15.5 4.03 46 63 43 68 4.50 -69 8 07/31/2025 07:45 AM
47852 15.4 3.97 7 60 43 64 4.50 -69 8 07/31/2025 07:15 AM
47851 15.4 3.94 5 58 43 65 4.50 -69 8 07/31/2025 07:00 AM
47850 15.3 3.87 0 57 43 62 4.50 -70 8 07/31/2025 06:45 AM
47849 15.3 3.86 0 56 44 59 4.50 -70 8 07/31/2025 06:30 AM
47848 15.2 3.91 -10 55 44 57 4.50 -70 8 07/31/2025 06:15 AM
47847 15.2 3.92 -5 55 44 56 1.30 -70 8 07/31/2025 06:00 AM
47846 15.2 3.86 -5 56 44 57 0.00 -70 8 07/31/2025 05:45 AM
47845 15.2 3.86 -5 56 44 57 0.00 -69 7 07/31/2025 05:30 AM